Meteo4 di Emilio Bellavite Il primo osservatorio Meteo di Verona  
 
domenica 28 maggio 2017
 
 
dati in tempo reale
Di seguito i dati in tempo reale delle stazioni on line della rete di Meteo4. Cliccando sul link della stazione, ove presente, si accederà al sito web personale.
Stazioni online
Località Giorno Ora Temp. Umid. Relat. Dew Point Press. Atm. Velocità Vento Direz. Vento Precip. Temp.
Min
Temp.
Max
Abano (PD) 28/05/17 02.35 19.8 °C 73 % 14.9 °C 1018.8 hPa 0.0 Km/h --- 0.0 mm  19.8 °C 22.1 °C
Acquaviva delle Fonti (BA) 28/05/17 02.33 16.7 °C 69 % 11.0 °C 1017.7 hPa 4.6 Km/h WNW 0.0 mm  16.5 °C 16.9 °C
Ala (TN) 28/05/17 02.33 19.8 °C 66 % 13.3 °C 1020.3 hPa 0.0 Km/h ESE 0.0 mm  19.7 °C 20.5 °C
Alleghe (BL) 28/05/17 02.33 13.6 °C 79 % 10.0 °C 1010.9 hPa 0.0 Km/h NE 0.0 mm  13.6 °C 14.8 °C
Alleghe Lago (BL) 28/05/17 02.34 14.2 °C 79 % 10.6 °C 1016.2 hPa 0.0 Km/h NE 0.0 mm  14.2 °C 15.0 °C
Ancona (AN) 28/05/17 02.35 15.7 °C 80 % 12.3 °C 1021.5 hPa 0.0 Km/h --- 0.0 mm  15.7 °C 16.4 °C
Arenzano (GE) 28/05/17 02.33 21.2 °C 52 % 10.9 °C 1020.1 hPa 0.0 Km/h SE 0.0 mm  20.8 °C 21.4 °C
Arquà Polesine (RO) 28/05/17 02.33 17.3 °C 70 % 11.8 °C 1008.3 hPa 0.0 Km/h NE 0.0 mm  17.3 °C 18.6 °C
Arzignano loc. Castello (VI) 27/05/17 22.45 21.6 °C 65 % 14.7 °C 1019.1 hPa 0.4 Km/h WNW 0.0 mm  16.1 °C 27.6 °C
Arzignano Pugnello (VI) 28/05/17 02.33 19.3 °C 70 % 13.9 °C 1018.5 hPa 0.0 Km/h W 0.0 mm  18.9 °C 21.0 °C
Arzignano San Bortolo (VI) 28/05/17 02.44 21.0 °C 60 % 12.9 °C 1017.5 hPa 3.2 Km/h WSW 0.0 mm  21.0 °C 21.8 °C
Arzignano Tezze (VI) 28/05/17 02.42 17.3 °C 86 % 15.0 °C 1020.2 hPa 0.0 Km/h ENE 0.0 mm  17.2 °C 18.0 °C
Asiago Rifugio Val Formica (VI) 28/05/17 02.42 8.9 °C 96 % 8.3 °C 1022.2 hPa 0.0 Km/h NNW 0.0 mm  7.6 °C 8.9 °C
Avio (TN) 28/05/17 02.34 20.7 °C 64 % 13.6 °C 1020.5 hPa 0.0 Km/h SW 0.0 mm  20.2 °C 21.0 °C
Badia Calavena loc. San Valentino (VR) 28/05/17 02.33 19.0 °C 57 % 10.3 °C 1018.7 hPa 1.6 Km/h WNW 0.0 mm  16.6 °C 19.0 °C
Barcellona P.G. Centro (ME) 28/05/17 02.33 17.5 °C 71 % 12.2 °C 1018.2 hPa 8.0 Km/h SE 0.0 mm  17.4 °C 18.4 °C
Barcellona Pozzo di Gotto (ME) 28/05/17 02.33 18.0 °C 71 % 12.7 °C 1017.7 hPa 6.5 Km/h SW 0.0 mm  17.8 °C 19.0 °C
Bassano del Grappa (VI) 27/05/17 08.00 19.1 °C 73 % 14.2 °C 1006.4 hPa 1.6 Km/h ENE 0.0 mm  16.6 °C 19.3 °C
Belfiore (VR) 28/05/17 02.45 20.6 °C 57 % 11.8 °C 1020.5 hPa -1000.0 Km/h N 0.0 mm  20.4 °C 20.8 °C
Bellaria Igea Marina (RN) 28/05/17 02.33 16.3 °C 71 % 11.0 °C 1020.4 hPa 1.6 Km/h W 0.0 mm  16.3 °C 20.3 °C
Bellaria Igea Marina2 (RN) 28/05/17 02.33 16.4 °C 74 % 11.7 °C 1020.2 hPa 1.6 Km/h WSW 0.0 mm  16.4 °C 20.4 °C
Bellaria Igea Marina3 (RN) 28/05/17 02.33 15.3 °C 72 % 10.3 °C 1019.5 hPa 0.0 Km/h SSW 0.0 mm  15.3 °C 18.4 °C
Belluno Castion (BL) 28/05/17 02.30 16.2 °C 82 % 13.1 °C 1020.0 hPa 0.0 Km/h SE 0.0 mm  15.8 °C 16.7 °C
Besenello (TN) 28/05/17 02.33 17.6 °C 73 % 12.7 °C 1021.9 hPa 0.0 Km/h NE 0.0 mm  17.5 °C 20.8 °C
Besozzo (VA) 27/05/17 22.03 19.6 °C 79 % 15.9 °C 1017.7 hPa 0.0 Km/h --- 0.0 mm  13.4 °C 27.6 °C
Bisignano (CS) 28/05/17 02.33 16.7 °C 52 % 6.8 °C 1019.6 hPa 3.3 Km/h NW 0.0 mm  15.9 °C 18.2 °C
Bitti (NU) 28/05/17 02.31 14.6 °C 53 % 5.1 °C 1021.7 hPa 0.0 Km/h NW 0.0 mm  14.6 °C 16.2 °C
Bolognano di Arco (TN) 28/05/17 02.32 18.0 °C 74 % 13.3 °C 1021.2 hPa 0.0 Km/h NNE 0.0 mm  18.0 °C 19.2 °C
Bonorva (SS) 28/05/17 02.30 16.5 °C 47 % 5.1 °C 1018.6 hPa 0.0 Km/h --- 0.0 mm  16.5 °C 18.5 °C
Borgo Valsugana (TN) 28/05/17 02.41 17.4 °C 71 % 12.1 °C 1024.9 hPa 1.4 Km/h NNW 0.0 mm  17.4 °C 19.2 °C
Borgofranco d'Ivrea (TO) 28/05/17 02.33 20.8 °C 70 % 15.1 °C 1020.7 hPa 10.8 Km/h NNE 0.0 mm  20.2 °C 21.3 °C
Borore (NU) 28/05/17 02.34 14.2 °C 90 % 12.6 °C 1018.4 hPa 3.7 Km/h S 0.0 mm  14.2 °C 15.8 °C
Brebbia (VA) 27/05/17 21.50 20.7 °C 75 % 16.1 °C 1019.0 hPa 0.0 Km/h --- 0.0 mm  14.8 °C 27.7 °C
Bresega (PD) 28/05/17 02.34 0.0 °C 0 % 0.0 °C 1020.3 hPa 0.0 Km/h N 0.0 mm  0.0 °C 0.0 °C
Brolo c/da Parrazzà (ME) 28/05/17 02.34 16.3 °C 61 % 8.8 °C 1018.8 hPa 14.0 Km/h ESE 0.0 mm  15.9 °C 17.4 °C
Brugine2 (PD) 28/05/17 02.29 16.9 °C 82 % 13.8 °C 1020.5 hPa 0.0 Km/h SSW 0.0 mm  16.9 °C 18.1 °C
Buccheri (SR) 28/05/17 02.08 11.7 °C 64 % 5.1 °C 1015.0 hPa 0.0 Km/h ESE 0.0 mm  11.6 °C 12.1 °C
Budoia (PN) 27/05/17 17.30 28.6 °C 41 % 14.0 °C 1017.5 hPa 8.0 Km/h S 0.0 mm  28.6 °C 28.6 °C
Ca' Gallo (PU) 28/05/17 02.44 13.3 °C 81 % 10.1 °C 1018.2 hPa 2.9 Km/h NNW 0.0 mm  13.3 °C 14.9 °C
Calcinato (BS) 28/05/17 02.33 19.1 °C 70 % 13.5 °C 1023.0 hPa 0.0 Km/h ENE 0.0 mm  19.1 °C 20.8 °C
Calliano (TN) 28/05/17 02.33 17.8 °C 73 % 12.9 °C 1020.7 hPa 3.2 Km/h SSE 0.0 mm  17.8 °C 20.6 °C
Caltabellotta (AG) 28/05/17 02.30 14.4 °C 57 % 6.0 °C 1017.1 hPa 0.0 Km/h W 0.0 mm  13.5 °C 14.4 °C
Cammarata (AG) 28/05/17 02.33 13.8 °C 67 % 7.8 °C 1018.8 hPa 11.2 Km/h WNW 0.0 mm  13.4 °C 14.5 °C
Campoformido (UD) 28/05/17 02.30 20.5 °C 74 % 15.7 °C 1021.2 hPa 1.4 Km/h ESE 0.0 mm  20.4 °C 20.9 °C
Camposampiero (PD) 28/05/17 02.40 28.9 °C 35 % 11.9 °C 1018.0 hPa 1.9 Km/h W 0.0 mm  28.9 °C 28.9 °C
Capodimonte (VT) 28/05/17 02.30 17.1 °C 67 % 10.9 °C 1020.5 hPa 0.0 Km/h N 0.0 mm  17.1 °C 19.8 °C
Caprarola Centro Storico (VT) 28/05/17 02.33 16.0 °C 62 % 8.7 °C 1019.0 hPa 4.6 Km/h W 0.0 mm  15.9 °C 17.9 °C
Caprino (VR) 26/05/17 15.50 24.7 °C 48 % 12.9 °C 1014.7 hPa 3.5 Km/h SSW 0.0 mm  14.1 °C 24.9 °C
Carceri (PD) 28/05/17 02.45 17.2 °C 79 % 13.3 °C 1019.9 hPa 0.0 Km/h WSW 0.0 mm  17.2 °C 18.8 °C
Carmignano loc. Seano (PO) 28/05/17 02.34 16.7 °C 71 % 11.4 °C 1020.7 hPa 2.2 Km/h SSW 0.0 mm  16.7 °C 20.1 °C
Carpi (MO) 28/05/17 02.34 17.6 °C 73 % 12.7 °C 1020.0 hPa 0.0 Km/h E 0.0 mm  17.6 °C 20.7 °C
Cartigliano (VI) 28/05/17 02.33 18.5 °C 81 % 15.2 °C 1019.5 hPa 0.0 Km/h S 0.0 mm  18.5 °C 20.8 °C
Cartura (PD) 28/05/17 02.34 16.6 °C 78 % 12.7 °C 1019.0 hPa 0.0 Km/h SSW 0.0 mm  16.6 °C 19.4 °C
Casotto (VI) 28/05/17 02.36 16.5 °C 79 % 12.8 °C 1026.6 hPa 0.0 Km/h E 0.0 mm  16.5 °C 17.5 °C
Cassano Magnago (VA) 28/05/17 02.40 20.2 °C 66 % 13.6 °C 1021.6 hPa 0.0 Km/h SE 0.0 mm  19.8 °C 20.6 °C
Castel d'Azzano (VR) 26/05/17 17.45 25.5 °C 43 % 12.0 °C 844.4 hPa 3.2 Km/h SW 0.0 mm  17.8 °C 26.2 °C
Castelfranco Veneto (TV) 28/05/17 02.35 19.8 °C 80 % 16.3 °C 1019.8 hPa 0.0 Km/h --- 0.0 mm  19.6 °C 21.4 °C
Castelfranco Veneto2 (TV) 28/05/17 02.44 19.8 °C 73 % 14.8 °C 1020.2 hPa 0.0 Km/h S 0.0 mm  19.8 °C 21.9 °C
Castelgomberto (VI) 28/05/17 02.34 19.7 °C 69 % 13.8 °C 1019.7 hPa 0.0 Km/h NW 0.0 mm  19.5 °C 20.1 °C
Castelnuovo V.C. (PI) 28/05/17 02.36 13.3 °C 66 % 7.1 °C 1019.7 hPa 0.0 Km/h WSW 0.0 mm  13.3 °C 16.3 °C
Castiglione del Lago (PG) 28/05/17 02.30 12.7 °C 74 % 8.1 °C 1022.7 hPa 0.0 Km/h --- 0.0 mm  12.7 °C 16.0 °C
Castiglione della Pescaia Vaticino (GR) 28/05/17 02.33 20.1 °C 49 % 9.0 °C 1020.1 hPa 0.0 Km/h W 0.0 mm  19.6 °C 21.8 °C
Cavaria con Premezzo (VA) 28/05/17 02.33 20.8 °C 63 % 13.3 °C 1019.6 hPa 2.0 Km/h SE 0.0 mm  19.3 °C 20.8 °C
Cefalù (PA) 28/05/17 02.33 17.6 °C 61 % 10.0 °C 1015.1 hPa 3.5 Km/h S 0.0 mm  17.0 °C 17.9 °C
Cerea (VR) 27/05/17 23.45 20.8 °C 62 % 13.3 °C 1019.7 hPa 6.4 Km/h S 0.0 mm  14.5 °C 30.3 °C
Chiusi (SI) 28/05/17 02.41 17.2 °C 60 % 9.3 °C 1020.9 hPa 0.0 Km/h N 0.0 mm  16.9 °C 18.9 °C
Cima Grappa (TV) 28/05/17 02.34 11.3 °C 83 % 8.5 °C 1022.2 hPa 2.0 Km/h SSW 0.0 mm  11.2 °C 11.6 °C
Cismon del Grappa loc. Corlo (VI) 28/05/17 02.34 18.0 °C 71 % 12.7 °C 1022.9 hPa 4.6 Km/h ESE 0.0 mm  17.6 °C 19.7 °C
Cittadella (PD) 28/05/17 01.52 21.1 °C 67 % 14.7 °C 1019.7 hPa 0.0 Km/h W 0.0 mm  21.1 °C 23.3 °C
Civita Castellana (VT) 28/05/17 02.33 16.4 °C 60 % 8.6 °C 1019.9 hPa 5.8 Km/h N 0.0 mm  16.4 °C 18.6 °C
Cogollo del Cengio (VI) 28/05/17 02.31 18.6 °C 55 % 9.4 °C 1020.5 hPa 9.0 Km/h NW 0.0 mm  18.4 °C 19.2 °C
Colle del Piccolo San Bernardo La Thuile (AO) 28/05/17 02.43 7.7 °C 84 % 5.0 °C 1020.2 hPa 6.4 Km/h ENE 0.0 mm  7.3 °C 9.5 °C
Colle S. Lucia Posalz (BL) 28/05/17 02.33 12.4 °C 74 % 7.9 °C 1032.1 hPa 0.0 Km/h SSW 0.0 mm  12.3 °C 13.8 °C
Cologna Veneta Sant'Andrea (VR) 28/05/17 02.35 18.1 °C 84 % 15.4 °C 1018.9 hPa 0.0 Km/h --- 0.0 mm  16.8 °C 19.2 °C
Colognola ai Colli (VR) 28/05/17 02.00 19.8 °C 69 % 14.0 °C 1021.6 hPa 1.6 Km/h N 0.0 mm  19.2 °C 19.9 °C
Contrada Dosso Gervasio (VR) 28/05/17 02.30 17.7 °C 64 % 10.6 °C 1020.1 hPa 2.0 Km/h NNW 0.0 mm  16.6 °C 17.8 °C
Corrubio di S. Anna d'Alfaedo (VR) 28/05/17 02.40 18.3 °C 63 % 11.2 °C 1022.0 hPa 0.0 Km/h --- 0.0 mm  17.2 °C 18.4 °C
Cosseria Lidora (SV) 28/05/17 02.30 13.0 °C 90 % 11.4 °C 1020.1 hPa 0.0 Km/h --- 0.0 mm  12.9 °C 14.4 °C
Costa di Vittorio Veneto (TV) 28/05/17 02.44 20.1 °C 68 % 14.0 °C 1019.5 hPa 0.0 Km/h NNE 0.0 mm  19.7 °C 20.2 °C
Dorno (PV) 28/05/17 02.34 19.3 °C 80 % 15.7 °C 1019.8 hPa 0.0 Km/h ESE 0.0 mm  19.3 °C 21.4 °C
Dossobuono (VR) 28/05/17 02.34 20.9 °C 62 % 13.3 °C 1022.0 hPa 3.2 Km/h N 0.0 mm  20.8 °C 22.0 °C
Esine (BS) 28/05/17 02.30 19.4 °C 68 % 13.3 °C 1019.8 hPa 1.7 Km/h ENE 0.0 mm  19.1 °C 20.3 °C
Falzè di Piave (TV) 27/05/17 21.14 21.3 °C 68 % 15.2 °C 1019.5 hPa 0.0 Km/h --- 0.0 mm  13.5 °C 29.6 °C
Farra di Soligo (TV) 28/05/17 02.30 19.0 °C 74 % 14.2 °C 1020.1 hPa 0.0 Km/h W 0.0 mm  18.7 °C 19.2 °C
Favaro Veneto (VE) 28/05/17 02.30 20.6 °C 66 % 14.0 °C 1020.6 hPa 3.2 Km/h W 0.0 mm  20.6 °C 22.3 °C
Feltre Celarda (BL) 28/05/17 02.33 15.6 °C 87 % 13.4 °C 1019.2 hPa 0.0 Km/h ENE 0.0 mm  15.2 °C 16.8 °C
Ferrara di M.B. (VR) 28/05/17 02.05 13.1 °C 72 % 8.1 °C 1018.3 hPa 0.0 Km/h --- 0.0 mm  12.3 °C 13.6 °C
Fiavè loc. Ballino (TN) 28/05/17 02.33 14.9 °C 74 % 10.3 °C 1027.5 hPa 3.6 Km/h N 0.0 mm  13.8 °C 15.1 °C
Filo di Argenta (FE) 28/05/17 02.35 17.2 °C 73 % 12.3 °C 1021.4 hPa 2.4 Km/h S 0.0 mm  17.2 °C 19.5 °C
Fogliano Redipuglia (GO) 28/05/17 02.43 19.9 °C 56 % 10.8 °C 1020.9 hPa 9.3 Km/h SE 0.0 mm  19.5 °C 20.2 °C
Foligno (PG) 28/05/17 02.20 15.6 °C 66 % 9.3 °C 1020.5 hPa 6.4 Km/h ESE 0.0 mm  15.4 °C 17.3 °C
Fontanafredda (PN) 28/05/17 02.34 16.7 °C 90 % 15.1 °C 1020.5 hPa 2.2 Km/h NW 0.0 mm  16.6 °C 19.0 °C
Gallio (VI) 28/05/17 02.45 12.7 °C 83 % 9.8 °C 1021.6 hPa 3.2 Km/h WNW 0.0 mm  12.1 °C 13.3 °C
Gardolo (TN) 28/05/17 02.34 17.2 °C 74 % 12.5 °C 1022.0 hPa 0.0 Km/h NNE 0.0 mm  16.4 °C 20.3 °C
Genova Albaro (GE) 28/05/17 02.33 19.5 °C 48 % 8.2 °C 1021.0 hPa 4.0 Km/h N 0.0 mm  19.5 °C 20.4 °C
Genova Erzelli (GE) 28/05/17 02.37 20.8 °C 60 % 12.7 °C 1019.3 hPa 8.0 Km/h N 0.0 mm  20.6 °C 21.3 °C
Giazza (VR) 28/05/17 02.30 15.4 °C 80 % 12.0 °C 1020.7 hPa 4.7 Km/h NNE 0.0 mm  13.9 °C 15.4 °C
Girifalco (CZ) 21/05/17 09.04 15.9 °C 76 % 11.7 °C 1012.3 hPa 22.5 Km/h W 0.0 mm  13.8 °C 16.4 °C
Gorizia (GO) 28/05/17 02.33 20.6 °C 67 % 13.8 °C 1021.2 hPa 0.0 Km/h NNW 0.0 mm  20.5 °C 21.6 °C
Gradisca d'Isonzo (GO) 28/05/17 02.34 19.8 °C 67 % 13.5 °C 1021.4 hPa 0.0 Km/h ESE 0.0 mm  19.8 °C 21.8 °C
Iglesias (CI) 28/05/17 02.43 17.0 °C 74 % 12.3 °C 1020.9 hPa 1.4 Km/h NNE 0.0 mm  16.5 °C 17.7 °C
Isola d'Elba Marina di Campo (LI) 28/05/17 02.15 20.2 °C 56 % 11.2 °C 1017.0 hPa 1.6 Km/h NNW 0.0 mm  19.3 °C 22.2 °C
Lavis (TN) 28/05/17 02.30 19.2 °C 66 % 12.8 °C 1021.5 hPa 1.7 Km/h NW 0.0 mm  19.2 °C 20.1 °C
Laxolo (BG) 28/05/17 02.38 14.7 °C 75 % 10.3 °C 1021.2 hPa 0.0 Km/h WNW 0.0 mm  12.3 °C 25.8 °C
Legnago (VR) 28/05/17 02.35 18.2 °C 76 % 13.9 °C 1020.7 hPa 0.0 Km/h --- 0.0 mm  18.1 °C 20.9 °C
Lesmo (MB) 28/05/17 02.35 17.3 °C 76 % 13.0 °C 1020.7 hPa 0.0 Km/h --- 0.0 mm  16.7 °C 18.5 °C
Loano (SV) 28/05/17 02.35 20.1 °C 68 % 14.0 °C 1019.9 hPa 3.0 Km/h S 0.0 mm  20.0 °C 20.7 °C
Lovere (BG) 27/05/17 22.52 20.8 °C 30 % 2.6 °C 1020.0 hPa 5.8 Km/h SW 0.0 mm  16.3 °C 27.2 °C
Lugagnano (VR) 28/05/17 02.34 20.3 °C 67 % 13.9 °C 1019.4 hPa 0.0 Km/h SSE 0.0 mm  20.0 °C 20.9 °C
Lusiana Sciessere (VI) 28/05/17 02.33 18.4 °C 62 % 11.0 °C 1024.5 hPa 0.0 Km/h ESE 0.0 mm  17.9 °C 18.8 °C
Malnate San Salvatore (VA) 28/05/17 02.35 18.5 °C 75 % 14.0 °C 1021.1 hPa 0.0 Km/h NNW 0.0 mm  18.0 °C 20.0 °C
Marano Vicentino2 (VI) 28/05/17 02.30 19.1 °C 71 % 13.7 °C 1020.2 hPa 0.0 Km/h W 0.0 mm  19.0 °C 20.6 °C
Margone (TN) 28/05/17 02.30 14.9 °C 77 % 10.9 °C 1023.4 hPa 4.5 Km/h N 0.0 mm  14.0 °C 14.9 °C
Marostica Valle San Floriano (VI) 28/05/17 02.34 18.2 °C 77 % 13.9 °C 1021.4 hPa 0.0 Km/h SSW 0.0 mm  18.2 °C 18.7 °C
Marta (VT) 28/05/17 02.40 18.7 °C 64 % 11.7 °C 1018.7 hPa 3.7 Km/h NNE 0.0 mm  18.7 °C 20.2 °C
Martignano (TN) 28/05/17 02.35 19.1 °C 64 % 12.1 °C 1019.6 hPa 0.0 Km/h NW 0.0 mm  18.7 °C 20.8 °C
Masiera di Bagnacavallo (RA) 28/05/17 02.43 15.4 °C 84 % 12.7 °C 1017.9 hPa 4.1 Km/h SW 0.0 mm  12.3 °C 28.8 °C
Massarosa (LU) 28/05/17 02.50 19.7 °C 56 % 10.7 °C 1009.0 hPa 6.1 Km/h NE 0.0 mm  18.3 °C 20.9 °C
Massone di Arco (TN) 28/05/17 02.50 18.4 °C 72 % 13.3 °C 1021.1 hPa 0.0 Km/h NNE 0.0 mm  18.3 °C 19.6 °C
Merlara (PD) 28/05/17 02.35 16.6 °C 77 % 12.6 °C 1019.9 hPa 0.0 Km/h --- 0.0 mm  16.4 °C 17.7 °C
Mezzana Bigli (PV) 28/05/17 02.50 17.7 °C 79 % 14.0 °C 1019.1 hPa 0.0 Km/h ENE 0.0 mm  17.7 °C 20.5 °C
Migliarino (FE) 28/05/17 02.45 19.4 °C 63 % 12.2 °C 1019.9 hPa 3.5 Km/h SE 0.0 mm  19.4 °C 20.6 °C
Miglionico (MT) 28/05/17 02.40 14.3 °C 76 % 10.2 °C 1016.0 hPa 17.7 Km/h NW 0.0 mm  14.2 °C 15.7 °C
Miola di Piné (TN) 28/05/17 02.50 13.9 °C 82 % 10.9 °C 1021.7 hPa 5.7 Km/h ENE 0.0 mm  12.9 °C 13.9 °C
Mirabella Imbaccari (CT) 28/05/17 02.38 16.1 °C 74 % 11.4 °C 1016.3 hPa 1.9 Km/h NNW 0.0 mm  15.4 °C 16.3 °C
Molina (VR) 28/05/17 00.10 14.9 °C 75 % 10.5 °C 1020.5 hPa 3.5 Km/h N 0.0 mm  14.6 °C 14.9 °C
Monasterolo Torinese (TO) 28/05/17 02.35 21.3 °C 65 % 14.4 °C 1017.0 hPa 0.0 Km/h --- 0.0 mm  19.4 °C 21.3 °C
Moneglia loc. La Secca (GE) 28/05/17 00.00 21.3 °C 52 % 11.0 °C 1019.4 hPa 2.2 Km/h NE 0.0 mm  21.3 °C 21.3 °C
Mongrando San Michele (BI) 28/05/17 02.34 19.4 °C 78 % 15.5 °C 1019.6 hPa 0.0 Km/h --- 0.0 mm  18.6 °C 19.8 °C
Montagna in Valtellina (SO) 28/05/17 02.50 20.1 °C 74 % 15.3 °C 1020.9 hPa 0.0 Km/h SW 0.0 mm  20.1 °C 21.3 °C
Montebello Vicentino loc. Selva (VI) 28/05/17 02.50 21.3 °C 57 % 12.4 °C 1020.0 hPa 2.6 Km/h S 0.0 mm  21.0 °C 22.3 °C
Montecchio Maggiore La Valle (VI) 28/05/17 02.44 20.0 °C 22 % -2.4 °C 1015.1 hPa 0.0 Km/h N 0.0 mm  20.0 °C 20.8 °C
Montecchio Maggiore Sant'Urbano (VI) 28/05/17 02.46 20.0 °C 55 % 10.6 °C 1025.6 hPa 4.2 Km/h SW 0.0 mm  20.0 °C 20.9 °C
Monteforte d'Alpone (VR) 28/05/17 02.35 19.7 °C 69 % 13.8 °C 1019.0 hPa 0.0 Km/h NNE 0.0 mm  19.6 °C 21.8 °C
Montelabbate (PU) 28/05/17 02.45 14.1 °C 79 % 10.5 °C 1020.9 hPa 3.2 Km/h SW 0.0 mm  14.1 °C 15.8 °C
Montespertoli (FI) 28/05/17 02.44 19.0 °C 49 % 8.1 °C 1023.2 hPa 2.9 Km/h N 0.0 mm  18.2 °C 22.3 °C
Montorso Vicentino (VI) 28/05/17 02.50 20.1 °C 62 % 12.6 °C 1020.3 hPa 0.0 Km/h SW 0.0 mm  19.9 °C 21.2 °C
Morbegno (SO) 28/05/17 02.50 20.3 °C 70 % 14.6 °C 1020.3 hPa 0.0 Km/h ESE 0.0 mm  20.3 °C 21.8 °C
Muzzano (BI) 28/05/17 02.20 20.3 °C 70 % 14.7 °C 1018.5 hPa 4.8 Km/h NW 0.0 mm  19.5 °C 20.6 °C
Nichelino (TO) 28/05/17 02.40 23.2 °C 56 % 13.9 °C 1018.9 hPa 0.0 Km/h N 0.0 mm  22.7 °C 23.7 °C
Novara (NO) 28/05/17 01.50 18.6 °C 83 % 15.6 °C 1019.6 hPa 0.0 Km/h --- 0.0 mm  18.6 °C 20.4 °C
Onara extraurbana (PD) 28/05/17 02.50 18.0 °C 81 % 14.7 °C 1018.8 hPa 0.0 Km/h SSE 0.0 mm  18.0 °C 19.6 °C
Oristano (OR) 28/05/17 02.51 16.8 °C 90 % 15.2 °C 1018.6 hPa 0.0 Km/h ENE 0.0 mm  16.8 °C 20.3 °C
Orosei (NU) 28/05/17 02.36 17.6 °C 72 % 12.5 °C 1019.1 hPa 1.6 Km/h ESE 0.0 mm  17.6 °C 19.1 °C
Ortonovo (SP) 28/05/17 02.50 20.9 °C 43 % 7.9 °C 1022.0 hPa 1.1 Km/h S 0.0 mm  20.9 °C 22.3 °C
Orvieto (TR) 28/05/17 02.16 15.1 °C 65 % 8.6 °C 1018.5 hPa 0.0 Km/h ESE 0.0 mm  14.9 °C 16.1 °C
Ostana (CN) 27/05/17 23.14 12.5 °C 94 % 11.6 °C 1019.4 hPa 3.2 Km/h WNW 0.0 mm  10.1 °C 16.6 °C
Ostiano (CR) 28/05/17 02.49 20.0 °C 68 % 13.9 °C 1020.6 hPa 1.1 Km/h N 0.0 mm  17.6 °C 22.3 °C
Ovaro loc. Liariis (UD) 28/05/17 02.25 14.7 °C 85 % 12.2 °C 1022.0 hPa 0.0 Km/h --- 0.0 mm  14.4 °C 15.1 °C
Pace del Mela (ME) 28/05/17 02.50 17.4 °C 68 % 11.4 °C 1019.1 hPa 3.4 Km/h SE 0.0 mm  17.2 °C 17.5 °C
Padergnone (TN) 28/05/17 02.45 16.0 °C 85 % 13.5 °C 1021.6 hPa 0.0 Km/h NNW 0.0 mm  15.0 °C 16.8 °C
Parella (TO) 28/05/17 02.47 21.2 °C 73 % 16.2 °C 1017.8 hPa 0.0 Km/h WNW 0.0 mm  21.1 °C 21.8 °C
Pastrengo (VR) 28/05/17 02.42 20.1 °C 63 % 12.8 °C 1022.2 hPa 0.0 Km/h E 0.0 mm  20.1 °C 21.2 °C
Pastrengo Cornè (VR) 28/05/17 02.35 20.2 °C 63 % 12.9 °C 1019.4 hPa 0.0 Km/h NNE 0.0 mm  19.5 °C 20.5 °C
Pecetto Torinese (TO) 28/05/17 02.45 21.1 °C 64 % 14.1 °C 1021.6 hPa 0.0 Km/h NE 0.0 mm  20.7 °C 21.2 °C
Pedara (CT) 28/05/17 01.50 14.5 °C 66 % 8.2 °C 1015.5 hPa 0.0 Km/h N 0.0 mm  13.4 °C 18.1 °C
Pedemonte (VR) 28/05/17 02.35 19.3 °C 73 % 14.3 °C 1020.3 hPa 0.0 Km/h N 0.0 mm  19.2 °C 19.6 °C
Pian di Castagné (VR) 28/05/17 02.42 21.1 °C 56 % 12.0 °C 1019.9 hPa 0.0 Km/h SE 0.0 mm  21.1 °C 21.8 °C
Pila Valsesia (VC) 28/05/17 02.30 17.2 °C 80 % 13.7 °C 1018.4 hPa 0.0 Km/h WNW 0.0 mm  16.8 °C 17.4 °C
Piovà Massaia (AT) 28/05/17 02.50 21.8 °C 65 % 14.9 °C 1018.8 hPa 0.0 Km/h NW 0.0 mm  21.9 °C 22.6 °C
Piraino contr. Fiumara (ME) 28/05/17 02.35 14.9 °C 71 % 9.7 °C 1018.6 hPa 0.0 Km/h NE 0.0 mm  14.8 °C 15.4 °C
Pisa zona I Passi (PI) 28/05/17 02.50 18.7 °C 45 % 6.5 °C 1021.3 hPa 0.0 Km/h E 0.0 mm  18.7 °C 20.4 °C
Pomezia (RM) 28/05/17 02.50 19.7 °C 58 % 11.2 °C 1018.3 hPa 6.4 Km/h SE 0.0 mm  17.9 °C 19.7 °C
Ponte San Nicolò (PD) 28/05/17 02.45 20.4 °C 65 % 13.6 °C 1020.2 hPa 0.0 Km/h WSW 0.0 mm  20.4 °C 21.9 °C
Ponte San Pellegrino (MO) 28/05/17 02.49 17.6 °C 71 % 12.3 °C 1011.2 hPa 5.0 Km/h SE 0.0 mm  17.6 °C 20.3 °C
Pordenone (PN) 28/05/17 02.25 20.0 °C 76 % 15.6 °C 1020.7 hPa 0.0 Km/h N 0.0 mm  19.9 °C 21.7 °C
Pozzolo Formigaro (AL) 28/05/17 02.36 16.4 °C 82 % 13.3 °C 1020.9 hPa 0.0 Km/h SSE 0.0 mm  16.4 °C 18.5 °C
Pray (BI) 28/05/17 02.50 17.8 °C 86 % 15.4 °C 1019.9 hPa 0.0 Km/h --- 0.0 mm  17.3 °C 18.3 °C
Quinto di Valpantena (VR) 28/05/17 02.30 19.9 °C 68 % 13.8 °C 1020.8 hPa 0.0 Km/h NW 0.0 mm  19.6 °C 19.9 °C
Reggello (FI) 28/05/17 02.51 16.5 °C 51 % 6.3 °C 1024.5 hPa 11.3 Km/h SO 0.0 mm  15.6 °C 17.6 °C
Riccione (RN) 28/05/17 01.50 15.2 °C 79 % 11.6 °C 1021.1 hPa 3.2 Km/h SW 0.0 mm  15.2 °C 16.7 °C
Rifugio Bocca di Selva (VR) 27/05/17 06.39 9.7 °C 93 % 8.6 °C 1021.6 hPa 3.2 Km/h NW 0.0 mm  9.1 °C 9.8 °C
Rifugio Fiori del Baldo (VR) 28/05/17 00.25 10.6 °C 100 % 10.6 °C 1029.4 hPa 17.4 Km/h W 0.0 mm  0.0 °C 0.0 °C
Rifugio Primaneve (VR) 28/05/17 02.45 10.9 °C 82 % 8.0 °C 1023.2 hPa 4.8 Km/h SW 0.0 mm  10.9 °C 11.3 °C
Rimini (RN) 28/05/17 02.30 16.2 °C 71 % 10.9 °C 1021.2 hPa 0.0 Km/h W 0.0 mm  16.2 °C 18.2 °C
Rimini Zona Palas (RN) 28/05/17 02.39 16.9 °C 73 % 12.2 °C 1020.9 hPa 3.2 Km/h WSW 0.0 mm  16.9 °C 18.3 °C
Rivalba (TO) 28/05/17 02.50 19.2 °C 75 % 14.7 °C 1021.0 hPa 0.0 Km/h NW 0.0 mm  18.5 °C 19.2 °C
Rivalta sul Mincio (MN) 28/05/17 02.36 18.8 °C 75 % 14.3 °C 1020.5 hPa 2.0 Km/h NNE 0.0 mm  18.8 °C 20.8 °C
Roma Prato della Signora (RM) 27/05/17 23.45 19.8 °C 65 % 13.1 °C 1017.8 hPa 0.0 Km/h NW 0.0 mm  19.0 °C 30.0 °C
Romano d'Ezzelino Fellette (VI) 28/05/17 02.51 19.1 °C 68 % 13.0 °C 1024.3 hPa 0.0 Km/h WNW 0.0 mm  18.7 °C 20.9 °C
Ronciglione Centro (VT) 28/05/17 02.50 16.7 °C 39 % 2.7 °C 1020.0 hPa 2.2 Km/h NE 0.0 mm  16.7 °C 18.4 °C
Ronciglione - Ponte Cuzzoli (VT) 28/05/17 02.35 15.2 °C 64 % 8.5 °C 1019.7 hPa 3.2 Km/h W 0.0 mm  15.1 °C 17.1 °C
S. Giovanni Ilarione2 (VR) 28/05/17 02.35 18.6 °C 73 % 13.6 °C 1020.1 hPa 1.6 Km/h WNW 0.0 mm  18.1 °C 19.2 °C
S. Giovanni Lupatoto (VR) 28/05/17 02.30 20.7 °C 66 % 14.1 °C 1020.5 hPa 0.0 Km/h --- 0.0 mm  20.7 °C 21.4 °C
S. Giovanni Rotondo (FG) 28/05/17 02.35 16.8 °C 61 % 9.2 °C 1018.6 hPa 11.3 Km/h N 0.0 mm  16.6 °C 17.7 °C
S. Lorenzo di Vittorio Veneto (TV) 28/05/17 02.50 21.3 °C 61 % 13.5 °C 1021.0 hPa 6.4 Km/h N 0.0 mm  20.7 °C 21.9 °C
S. Lorenzo Nuovo (VT) 28/05/17 02.51 15.8 °C 60 % 8.0 °C 1019.7 hPa 6.9 Km/h NNE 0.0 mm  15.4 °C 17.5 °C
S. Maria Maddalena (RO) 28/05/17 02.45 19.7 °C 61 % 12.2 °C 1019.7 hPa 0.0 Km/h SSE 0.0 mm  19.2 °C 20.9 °C
S. Martino Lupari (PD) 28/05/17 02.30 19.8 °C 81 % 16.5 °C 839.7 hPa 0.0 Km/h --- 0.0 mm  19.8 °C 21.7 °C
S. Rocco di Villabalzana (VI) 28/05/17 02.53 20.4 °C 61 % 12.8 °C 1020.2 hPa 0.0 Km/h WSW 0.0 mm  20.4 °C 21.1 °C
Sacile (PN) 28/05/17 02.40 18.8 °C 78 % 14.8 °C 1020.5 hPa 3.2 Km/h NNE 0.0 mm  18.7 °C 21.1 °C
Salcedo (VI) 28/05/17 02.50 19.8 °C 58 % 11.3 °C 1021.6 hPa 3.0 Km/h NNE 0.0 mm  19.8 °C 20.8 °C
San Benedetto del Tronto (AP) 28/05/17 02.35 18.8 °C 53 % 9.0 °C 1021.0 hPa 1.9 Km/h ESE 0.0 mm  18.8 °C 19.8 °C
San Cataldo (CL) 28/05/17 02.50 14.1 °C 60 % 6.4 °C 1017.0 hPa 4.8 Km/h NNE 0.0 mm  14.1 °C 14.6 °C
San Giovanni la Punta Trappeto (CT) 28/05/17 02.35 16.4 °C 76 % 12.2 °C 1018.1 hPa 3.2 Km/h N 0.0 mm  16.4 °C 18.0 °C
San Nazario (VI) 28/05/17 02.41 20.2 °C 64 % 13.2 °C 1020.2 hPa 2.6 Km/h NE 0.0 mm  19.7 °C 20.6 °C
San Pietro in Cariano (VR) 28/05/17 02.49 20.6 °C 65 % 13.8 °C 1021.9 hPa 1.1 Km/h N 0.0 mm  20.3 °C 20.6 °C
San Vito (CA) 28/05/17 02.51 28.3 °C 41 % 13.8 °C 1013.7 hPa 0.0 Km/h NNW 0.0 mm  28.3 °C 28.3 °C
Santarcangelo di Romagna (RN) 28/05/17 02.51 16.5 °C 65 % 9.9 °C 1021.4 hPa 5.4 Km/h N 0.0 mm  16.4 °C 18.6 °C
Savelli (KR) 28/05/17 02.50 13.0 °C 59 % 5.2 °C 1016.5 hPa 6.5 Km/h SE 0.0 mm  12.8 °C 13.1 °C
Schio (VI) 28/05/17 02.25 19.7 °C 68 % 13.6 °C 1021.5 hPa 3.2 Km/h WNW 0.0 mm  19.4 °C 19.9 °C
Schio Monte Magré (VI) 28/05/17 02.51 18.9 °C 73 % 13.9 °C 0.0 hPa 1.6 Km/h W 0.0 mm  17.8 °C 19.1 °C
Selva di Cadore Santa Fosca (BL) 28/05/17 02.50 12.2 °C 84 % 9.6 °C 1016.1 hPa 0.0 Km/h SE 0.0 mm  12.2 °C 13.9 °C
Seremange Erzange (Moselle) 28/05/17 02.50 18.5 °C 84 % 15.7 °C 1018.0 hPa 0.0 Km/h SE 0.0 mm  18.6 °C 19.3 °C
Sinnai (CA) 27/05/17 23.55 19.4 °C 66 % 12.9 °C 1019.8 hPa 0.0 Km/h WNW 0.0 mm  17.1 °C 25.6 °C
Soave Borgo Bassano (VR) 28/05/17 02.35 20.4 °C 71 % 15.0 °C 1020.7 hPa 0.0 Km/h WNW 0.0 mm  19.4 °C 20.7 °C
Soriso (NO) 28/05/17 02.30 19.3 °C 79 % 15.5 °C 1020.1 hPa 0.0 Km/h SW 0.0 mm  19.1 °C 21.2 °C
Staranzano (GO) 28/05/17 02.40 20.2 °C 63 % 12.9 °C 1021.6 hPa 0.0 Km/h SE 0.0 mm  20.2 °C 22.1 °C
Stiore - Monteveglio (BO) 28/05/17 02.50 15.4 °C 73 % 10.6 °C 1017.4 hPa 1.6 Km/h S 0.0 mm  15.3 °C 17.1 °C
Taio Mollaro (TN) 28/05/17 02.50 14.2 °C 83 % 11.4 °C 1024.2 hPa 0.0 Km/h N 0.0 mm  14.7 °C 15.9 °C
Taranto (TA) 28/05/17 02.35 20.0 °C 60 % 12.0 °C 1012.8 hPa 10.6 Km/h NNW 0.0 mm  20.0 °C 21.8 °C
Todi (PG) 28/05/17 02.35 16.8 °C 60 % 9.0 °C 1019.8 hPa 0.0 Km/h NNW 0.0 mm  16.6 °C 18.9 °C
Tombolo (PD) 28/05/17 02.51 19.8 °C 74 % 15.1 °C 1020.8 hPa 0.0 Km/h SW 0.0 mm  19.8 °C 21.6 °C
Torino Regio Parco (TO) 28/05/17 02.51 21.7 °C 70 % 16.0 °C 1021.9 hPa 0.7 Km/h E 0.0 mm  21.5 °C 23.6 °C
Torre Annunziata (NA) 28/05/17 02.35 20.2 °C 51 % 9.7 °C 1018.7 hPa 11.1 Km/h ENE 0.0 mm  19.8 °C 21.2 °C
Torremaggiore (FG) 28/05/17 02.51 17.7 °C 71 % 12.4 °C 1018.0 hPa 10.2 Km/h NNO 0.0 mm  17.7 °C 18.6 °C
Torri (FI) 26/05/17 09.15 18.7 °C 52 % 8.6 °C 1018.1 hPa 1.6 Km/h SSE 0.0 mm  11.8 °C 18.7 °C
Torrita di Siena (SI) 28/05/17 02.35 11.7 °C 79 % 8.2 °C 1021.6 hPa 1.6 Km/h WSW 0.0 mm  11.6 °C 15.3 °C
Trambileno (TN) 28/05/17 02.31 16.4 °C 78 % 12.8 °C 1025.6 hPa 0.0 Km/h N 0.0 mm  14.8 °C 16.4 °C
Tregnago Loc. Centro (VR) 28/05/17 02.35 20.3 °C 59 % 12.0 °C 1014.8 hPa 3.2 Km/h NNW 0.0 mm  18.8 °C 20.3 °C
Trento (TN) 28/05/17 02.51 20.6 °C 60 % 12.5 °C 1020.3 hPa 3.2 Km/h NNE 0.0 mm  20.3 °C 21.7 °C
Treviso (TV) 28/05/17 02.49 18.8 °C 76 % 14.5 °C 1021.5 hPa 1.0 Km/h N 0.0 mm  18.7 °C 19.6 °C
Tuscania (VT) 27/05/17 10.00 23.0 °C 39 % 8.3 °C 1019.4 hPa 3.5 Km/h ENE 0.0 mm  14.6 °C 23.1 °C
Valdobbiadene San Pietro di Barbozza (TV) 28/05/17 02.30 21.6 °C 56 % 12.5 °C 1019.9 hPa 0.0 Km/h N 0.0 mm  20.8 °C 22.2 °C
Valenza (AL) 28/05/17 02.41 18.8 °C 75 % 14.3 °C 1019.2 hPa 0.0 Km/h S 0.0 mm  18.7 °C 21.6 °C
Valli del Pasubio loc. Gisbenti (VI) 28/05/17 02.50 16.5 °C 49 % 5.7 °C 977.0 hPa 1.4 Km/h --- 0.0 mm  14.5 °C 16.5 °C
Varese Ligure (SP) 28/05/17 02.50 13.3 °C 47 % 2.2 °C 1035.2 hPa 2.0 Km/h N 0.0 mm  13.2 °C 14.6 °C
Vasto (CH) 28/05/17 02.51 20.1 °C 10 % -12.5 °C 1019.8 hPa 8.6 Km/h N 0.0 mm  20.1 °C 21.2 °C
Vattaro fraz. Pian dei Pradi (TN) 28/05/17 02.49 15.2 °C 78 % 11.4 °C 1021.7 hPa 0.0 Km/h SSW 0.0 mm  15.2 °C 16.6 °C
Verona Bgo Venezia (iz3sly) (VR) 28/05/17 02.42 20.1 °C 70 % 14.4 °C 1019.5 hPa 0.0 Km/h SE 0.0 mm  19.2 °C 20.1 °C
Vestenanova (VR) 28/05/17 02.50 18.2 °C 67 % 12.0 °C 1027.8 hPa 3.6 Km/h N 0.0 mm  16.7 °C 19.7 °C
Vicenza Campedello (VI) 28/05/17 02.55 17.1 °C 82 % 13.9 °C 1021.5 hPa 0.0 Km/h SSW 0.0 mm  17.1 °C 20.1 °C
Vicenza Moracchino (VI) 28/05/17 02.51 19.4 °C 75 % 14.8 °C 1019.7 hPa 1.6 Km/h W 0.0 mm  19.4 °C 21.7 °C
Vicenza Pecori Giraldi (VI) 28/05/17 02.50 20.6 °C 84 % 17.8 °C 1027.7 hPa 0.3 Km/h SW 0.0 mm  20.6 °C 22.6 °C
Vicenza S. Lazzaro (VI) 28/05/17 01.51 20.3 °C 69 % 14.4 °C 1019.6 hPa 3.0 Km/h SW 0.0 mm  20.3 °C 21.6 °C
Vicenza San Gaetano (VI) 27/05/17 22.50 22.7 °C 61 % 14.8 °C 1019.4 hPa 0.0 Km/h S 0.0 mm  16.5 °C 29.4 °C
Vidor (TV) 28/05/17 02.36 16.8 °C 81 % 13.6 °C 1019.5 hPa 0.0 Km/h NNW 0.0 mm  16.5 °C 17.6 °C
Vieste (FG) 28/05/17 02.51 20.4 °C 61 % 12.6 °C 1019.0 hPa 14.5 Km/h WSW 0.0 mm  20.3 °C 20.7 °C
Vigasio (VR) 28/05/17 02.30 20.7 °C 68 % 14.5 °C 1019.3 hPa 0.0 Km/h NNE 0.0 mm  20.6 °C 22.2 °C
Viozene Toria (CN) 28/05/17 02.50 12.5 °C 88 % 10.6 °C 1024.7 hPa 3.0 Km/h N 0.0 mm  12.3 °C 12.9 °C
Viterbo Santa Barbara (VT) 27/05/17 21.48 19.8 °C 48 % 8.5 °C 1018.2 hPa 8.0 Km/h NNE 0.0 mm  13.1 °C 27.2 °C
Vitorchiano Pallone (VT) 26/05/17 10.00 19.4 °C 49 % 8.4 °C 1016.4 hPa 8.0 Km/h NE 0.0 mm  18.3 °C 19.4 °C
Vittorio Veneto (TV) 28/05/17 00.25 20.9 °C 64 % 13.9 °C 1019.9 hPa 1.6 Km/h NE 0.0 mm  20.9 °C 21.0 °C
Vittorio Veneto Parco Fenderl (TV) 28/05/17 00.20 21.2 °C 64 % 14.1 °C 1021.2 hPa 1.6 Km/h NNW 0.0 mm  20.8 °C 21.2 °C
Volpago del Montello (TV) 21/05/17 17.15 26.0 °C 46 % 13.5 °C 1018.1 hPa 0.0 Km/h --- 0.0 mm  10.6 °C 26.0 °C
 
(*) = Precipitazioni nelle ultime 24h.
Dati non aggiornati nell'ultima ora.
   
In collaborazione con:
 
Top! Top!